SL-16 DEB, 39724

Orbit data source: Space-Track

SL-16 DEB, 39724 is space debris in LEO originally from a launch on Fri, 25 Dec 1992 UTC launched from the Tyuratam Missile And Space Complex (TTMTR). Debris objects in space refer to the collection of defunct objects orbiting the Earth. Examples of debris include non-operational satellites, rocket bodies, and fragments generated from explosions, collisions, or faulty payload assembly.

Loading next visibility...
Identifier
39724, 1992-093KQ
Orbit
LEO
Country
Flag of CISCIS
Related business
Manufacturer
Unknown
Mission
Spacecraft
Bus & Motor
Unknown
Mass
Unknown
Launch date (UTC)
1992-12-25 (33 years ago)
Launch vehicle
Unknown
Launch site
Tyuratam Missile And Space Complex (TTMTR)
Object type
Payload
Rocket body
Debris
Shape & HBR
Unknown shape, 0.1 m
Radar Cross Section
Small (<0.1 m²)

Expand to show TLE details & history
Last TLE update: 2 days ago

TLE from 2 days ago
0 SL-16 DEB
1 39724U 92093KQ  26131.85631862  .00000195  00000-0  15022-3 0  9998
2 39724  70.8505 343.0431 0088070 353.4755   6.5205 14.03198505617148
Epoch: 2026-05-11T20:33Z
TLE epoch observation values (Epoch: 2026-05-11T20:33:05.928Z)
Latitude
-0.00007°
Longitude
165.12933°
Altitude
821.583 km
Speed
7.475 km/s
True Right ascension
22h 52m 10s
True Declination
0° 00' 00"
Sunlit
Object was in daylight at epoch
Visualization orbit readout
Latitude
Unknown
Longitude
Unknown
Altitude
Unknown
Speed
Unknown
Apparent Right ascension
Unknown
Apparent Declination
Unknown
Sunlit
N/A
Visualization observer readout
Local Sidereal Time
23:49:48
Azimuth
Unknown
Elevation
Unknown
Doppler factor
Unknown
Orbital elements
Apogee altitude
944.62 km
Perigee altitude
816.763 km
Semi-major axis
7,258.828 km
Eccentricity
0.00881
Inclination
70.8505°
RAAN
343.0431°
Arg. of periapsis
353.4755°
True anomaly
6.63637°
Mean anomaly
6.5205°
Eccentric anomaly
6.57831°
Mean motion
3.50949 °/min
Orbital period
102.58 mins
BSTAR
0.00015022
Loading maneuver chart data...
Computing Atmospheric mass density...
Loading historical data...
Loading historical data...
Loading historical data...
Loading historical data...
Loading historical data...
Loading historical data...
Loading historical data...

Documentation

Showing up to 5 results
|